This is the latest recevied weather packets stored in our database for station/object VK4RM-13. If no packets are shown the sender has not sent any weather packets the latest 1 day(s).
| Time | Temp. | Humidity | Pressure | Rain* | Wind** | Luminosity | Snow |
|---|---|---|---|---|---|---|---|
| 1778043396 | 26.11° C | 73% | 993.3 hPa | 0 mm | 0.45 m/s, 355° | - | - |
| 1778042796 | 25.56° C | 75% | 993.3 hPa | 0 mm | 0.45 m/s, 321° | - | - |
| 1778042196 | 25.56° C | 74% | 993.4 hPa | 0 mm | 0.45 m/s, 310° | - | - |
| 1778041596 | 25° C | 74% | 993.6 hPa | 0 mm | 0.45 m/s, 336° | - | - |
| 1778040996 | 25.56° C | 75% | 993.5 hPa | 0 mm | 0 m/s | - | - |
| 1778040396 | 25° C | 77% | 993.7 hPa | 0 mm | 0 m/s | - | - |
| 1778039796 | 25° C | 78% | 993.9 hPa | 0 mm | 0 m/s | - | - |
| 1778039196 | 24.44° C | 79% | 994 hPa | 0 mm | 0 m/s | - | - |
| 1778038596 | 23.89° C | 80% | 994 hPa | 0 mm | 0 m/s | - | - |
| 1778037996 | 23.89° C | 82% | 994 hPa | 0.25 mm | 0 m/s | - | - |
| 1778036796 | 24.44° C | 80% | 994.3 hPa | 0.25 mm | 0.89 m/s, 325° | - | - |
| 1778036196 | 24.44° C | 78% | 994.3 hPa | 0.25 mm | 0 m/s | - | - |
| 1778035596 | 24.44° C | 80% | 994.5 hPa | 0.25 mm | 0.45 m/s, 0° | - | - |
| 1778034996 | 23.89° C | 84% | 994.6 hPa | 0.25 mm | 0 m/s | - | - |
| 1778034396 | 23.89° C | 80% | 994.6 hPa | 0 mm | 0.89 m/s, 309° | - | - |
| 1778033796 | 24.44° C | 79% | 994.6 hPa | 0 mm | 0.89 m/s, 292° | - | - |
| 1778033196 | 25° C | 76% | 994.6 hPa | 0 mm | 0.45 m/s, 287° | - | - |
| 1778032596 | 25.56° C | 73% | 994.6 hPa | 0 mm | 0.89 m/s, 13° | - | - |
| 1778031996 | 25° C | 73% | 994.8 hPa | 0 mm | 0.89 m/s, 351° | - | - |
| 1778031396 | 25.56° C | 73% | 995 hPa | 0 mm | 1.34 m/s, 341° | - | - |
| 1778030797 | 25.56° C | 72% | 995.1 hPa | 0 mm | 0.45 m/s, 323° | - | - |
| 1778030196 | 25° C | 73% | 995.1 hPa | 0 mm | 0.89 m/s, 340° | - | - |
| 1778029596 | 25° C | 73% | 995.3 hPa | 0 mm | 0.89 m/s, 24° | - | - |
| 1778028996 | 25° C | 73% | 995.4 hPa | 0 mm | 1.34 m/s, 355° | - | - |
| 1778028396 | 25.56° C | 72% | 995.6 hPa | 0 mm | 0.45 m/s, 29° | - | - |
* Rain latest hour (hover to see other rain measurements)
** Current wind speed in m/s (hover to see current wind gust speed)